This is the latest recevied weather packets stored in our database for station/object VA3ZFM-10. If no packets are shown the sender has not sent any weather packets the latest 10 day(s).
| Time | Temp. | Humidity | Pressure | Rain* | Wind** | Luminosity | Snow |
|---|---|---|---|---|---|---|---|
| 1778193541 | 7.22° C | 43% | 1008 hPa | 0 mm | - | - | - |
| 1778193237 | 7.78° C | 42% | 1008.1 hPa | 0 mm | - | - | - |
| 1778192933 | 7.78° C | 42% | 1008 hPa | 0 mm | - | - | - |
| 1778192629 | 7.78° C | 41% | 1007.8 hPa | 0 mm | - | - | - |
| 1778192326 | 7.78° C | 40% | 1008 hPa | 0 mm | - | - | - |
| 1778192023 | 7.78° C | 41% | 1008.1 hPa | 0 mm | - | - | - |
| 1778191719 | 7.78° C | 40% | 1007.8 hPa | 0 mm | - | - | - |
| 1778191418 | 7.78° C | 41% | 1008 hPa | 0 mm | - | - | - |
| 1778191114 | 7.78° C | 41% | 1008 hPa | 0 mm | - | - | - |
| 1778190811 | 8.33° C | 42% | 1007.8 hPa | 0 mm | - | - | - |
| 1778190508 | 7.78° C | 41% | 1007.8 hPa | 0 mm | - | - | - |
| 1778190206 | 8.33° C | 41% | 1008.2 hPa | 0 mm | - | - | - |
| 1778189905 | 8.33° C | 42% | 1008 hPa | 0 mm | - | - | - |
| 1778189603 | 8.33° C | 41% | 1008 hPa | 0 mm | - | - | - |
| 1778189300 | 8.33° C | 41% | 1007.8 hPa | 0 mm | - | - | - |
| 1778188996 | 8.33° C | 41% | 1007.6 hPa | 0 mm | - | - | - |
| 1778188692 | 8.33° C | 41% | 1007.5 hPa | 0 mm | - | - | - |
| 1778188389 | 8.33° C | 41% | 1007.9 hPa | 0 mm | - | - | - |
| 1778188086 | 8.33° C | 40% | 1007.8 hPa | 0 mm | - | - | - |
| 1778187783 | 8.89° C | 39% | 1007.8 hPa | 0 mm | - | - | - |
| 1778187479 | 8.89° C | 38% | 1007.6 hPa | 0 mm | - | - | - |
| 1778187176 | 9.44° C | 38% | 1007.7 hPa | 0 mm | - | - | - |
| 1778186872 | 8.89° C | 38% | 1007.7 hPa | 0 mm | - | - | - |
| 1778186570 | 9.44° C | 38% | 1007.6 hPa | 0 mm | - | - | - |
| 1778186268 | 8.89° C | 38% | 1007.6 hPa | 0 mm | - | - | - |
* Rain latest hour (hover to see other rain measurements)
** Current wind speed in m/s (hover to see current wind gust speed)